Time,TemperatureF,DewpointF,PressureIn,WindDirection,WindDirectionDegrees,WindSpeedMPH,WindSpeedGustMPH,Humidity,HourlyPrecipIn,Conditions,Clouds,dailyrainin,SoftwareType,DateUTC
2013-06-29 01:11:00,70.0,67.0,29.55,North,10,0.0,1.0,90,0.27,,,0.71,,2013-06-29 05:11:00,
2013-06-29 01:21:00,70.0,67.0,29.55,North,10,0.0,1.0,90,0.27,,,0.71,,2013-06-29 05:21:00,
2013-06-29 01:31:00,70.0,67.0,29.55,North,10,0.0,1.0,90,0.27,,,0.71,,2013-06-29 05:31:00,
2013-06-29 01:41:00,70.0,67.0,29.54,North,10,0.0,0.0,90,0.15,,,0.86,,2013-06-29 05:41:00,
2013-06-29 01:51:00,70.0,67.0,29.54,North,10,0.0,0.0,90,0.15,,,0.86,,2013-06-29 05:51:00,
2013-06-29 02:01:00,70.0,67.0,29.54,North,10,0.0,0.0,90,0.11,,,0.86,,2013-06-29 06:01:00,
2013-06-29 02:12:00,70.0,67.0,29.54,North,10,0.0,1.0,90,0.05,,,0.86,,2013-06-29 06:12:00,
2013-06-29 02:22:00,70.0,67.0,29.54,North,10,0.0,1.0,90,0.05,,,0.86,,2013-06-29 06:22:00,
2013-06-29 02:34:00,70.0,67.0,29.52,North,10,0.0,0.0,90,0.01,,,0.86,,2013-06-29 06:34:00,
2013-06-29 02:43:00,70.0,67.0,29.53,North,10,0.0,0.0,90,0.00,,,0.86,,2013-06-29 06:43:00,
2013-06-29 02:53:00,70.0,67.0,29.53,North,10,0.0,0.0,90,0.00,,,0.86,,2013-06-29 06:53:00,
2013-06-29 03:02:00,69.0,66.0,29.51,North,10,0.0,0.0,91,0.00,,,0.86,,2013-06-29 07:02:00,
2013-06-29 03:12:00,70.0,67.0,29.52,North,10,0.0,1.0,91,0.00,,,0.86,,2013-06-29 07:12:00,
2013-06-29 03:22:00,70.0,67.0,29.52,North,10,0.0,1.0,91,0.00,,,0.86,,2013-06-29 07:22:00,
2013-06-29 03:33:00,69.0,66.0,29.52,North,10,0.0,0.0,91,0.00,,,0.86,,2013-06-29 07:33:00,
2013-06-29 03:43:00,69.0,66.0,29.51,North,10,0.0,1.0,91,0.00,,,0.86,,2013-06-29 07:43:00,
2013-06-29 03:53:00,69.0,66.0,29.51,North,10,0.0,1.0,91,0.00,,,0.86,,2013-06-29 07:53:00,
2013-06-29 04:01:00,69.0,66.0,29.53,North,10,0.0,0.0,91,0.00,,,0.86,,2013-06-29 08:01:00,
2013-06-29 04:12:00,69.0,66.0,29.53,North,10,0.0,0.0,91,0.00,,,0.86,,2013-06-29 08:12:00,
2013-06-29 04:22:00,69.0,66.0,29.53,North,10,0.0,1.0,91,0.00,,,0.86,,2013-06-29 08:22:00,
2013-06-29 04:33:00,69.0,66.0,29.52,North,10,0.0,1.0,91,0.00,,,0.86,,2013-06-29 08:33:00,
2013-06-29 04:43:00,69.0,66.0,29.52,North,10,0.0,0.0,91,0.00,,,0.86,,2013-06-29 08:43:00,
2013-06-29 04:52:00,69.0,66.0,29.52,North,10,0.0,0.0,91,0.00,,,0.86,,2013-06-29 08:52:00,
2013-06-29 05:02:00,69.0,66.0,29.52,North,10,0.0,0.0,91,0.00,,,0.86,,2013-06-29 09:02:00,
2013-06-29 05:12:00,69.0,66.0,29.53,North,10,0.0,0.0,91,0.00,,,0.86,,2013-06-29 09:12:00,
2013-06-29 05:22:00,69.0,66.0,29.53,North,10,0.0,0.0,91,0.00,,,0.86,,2013-06-29 09:22:00,
2013-06-29 05:33:00,69.0,66.0,29.53,North,10,0.0,0.0,91,0.00,,,0.86,,2013-06-29 09:33:00,
2013-06-29 05:42:00,69.0,66.0,29.54,North,10,0.0,0.0,91,0.00,,,0.86,,2013-06-29 09:42:00,
2013-06-29 05:53:00,69.0,66.0,29.54,North,10,0.0,0.0,91,0.00,,,0.86,,2013-06-29 09:53:00,
2013-06-29 06:01:00,69.0,66.0,29.54,North,10,0.0,0.0,91,0.00,,,0.86,,2013-06-29 10:01:00,
2013-06-29 06:11:00,69.0,66.0,29.54,North,10,0.0,0.0,91,0.00,,,0.86,,2013-06-29 10:11:00,
2013-06-29 06:22:00,69.0,66.0,29.55,North,10,0.0,0.0,91,0.00,,,0.86,,2013-06-29 10:22:00,
2013-06-29 06:33:00,69.0,66.0,29.55,North,10,0.0,0.0,91,0.00,,,0.86,,2013-06-29 10:33:00,
2013-06-29 06:43:00,69.0,66.0,29.56,North,10,0.0,0.0,91,0.00,,,0.86,,2013-06-29 10:43:00,
2013-06-29 06:53:00,69.0,66.0,29.56,North,10,0.0,0.0,91,0.00,,,0.86,,2013-06-29 10:53:00,
2013-06-29 07:02:00,69.0,66.0,29.57,North,10,0.0,1.0,91,0.00,,,0.86,,2013-06-29 11:02:00,
2013-06-29 07:11:00,69.0,66.0,29.57,North,10,0.0,1.0,91,0.00,,,0.86,,2013-06-29 11:11:00,
2013-06-29 07:23:00,69.0,66.0,29.57,North,10,0.0,1.0,91,0.00,,,0.86,,2013-06-29 11:23:00,
2013-06-29 07:33:00,69.0,66.0,29.57,North,10,0.0,0.0,91,0.00,,,0.86,,2013-06-29 11:33:00,
2013-06-29 07:43:00,69.0,66.0,29.57,North,10,0.0,0.0,91,0.00,,,0.86,,2013-06-29 11:43:00,
2013-06-29 07:53:00,69.0,66.0,29.57,North,10,0.0,0.0,91,0.00,,,0.86,,2013-06-29 11:53:00,
2013-06-29 08:02:00,69.0,66.0,29.57,North,10,0.0,0.0,91,0.01,,,0.87,,2013-06-29 12:02:00,
2013-06-29 08:12:00,69.0,66.0,29.57,North,10,0.0,0.0,91,0.01,,,0.87,,2013-06-29 12:12:00,
2013-06-29 08:22:00,69.0,66.0,29.57,North,10,0.0,0.0,91,0.01,,,0.87,,2013-06-29 12:22:00,
2013-06-29 08:34:00,69.0,66.0,29.58,North,10,0.0,0.0,91,0.01,,,0.87,,2013-06-29 12:34:00,
2013-06-29 08:43:00,69.0,66.0,29.58,North,10,0.0,1.0,91,0.01,,,0.87,,2013-06-29 12:43:00,
2013-06-29 08:53:00,69.0,66.0,29.58,North,10,0.0,1.0,91,0.01,,,0.87,,2013-06-29 12:53:00,
2013-06-29 09:02:00,69.0,66.0,29.58,North,10,0.0,0.0,91,0.00,,,0.87,,2013-06-29 13:02:00,
2013-06-29 09:23:00,70.0,67.0,29.58,North,10,0.0,1.0,91,0.00,,,0.87,,2013-06-29 13:23:00,
2013-06-29 09:34:00,70.0,67.0,29.59,North,10,0.0,0.0,91,0.00,,,0.87,,2013-06-29 13:34:00,
2013-06-29 09:43:00,70.0,67.0,29.59,North,10,0.0,0.0,91,0.00,,,0.87,,2013-06-29 13:43:00,
2013-06-29 09:53:00,70.0,67.0,29.59,North,10,0.0,0.0,91,0.00,,,0.87,,2013-06-29 13:53:00,
2013-06-29 10:23:00,71.0,68.0,29.58,North,10,0.0,0.0,90,0.00,,,0.87,,2013-06-29 14:23:00,
2013-06-29 10:44:00,72.0,69.0,29.58,North,10,0.0,1.0,89,0.00,,,0.87,,2013-06-29 14:44:00,
2013-06-29 10:53:00,72.0,69.0,29.58,North,10,0.0,1.0,89,0.00,,,0.87,,2013-06-29 14:53:00,
2013-06-29 11:02:00,72.0,68.0,29.59,West,259,0.0,1.0,87,0.00,,,0.87,,2013-06-29 15:02:00,
2013-06-29 11:11:00,72.0,68.0,29.59,West,259,0.0,1.0,87,0.00,,,0.87,,2013-06-29 15:11:00,
2013-06-29 11:22:00,74.0,69.0,29.59,WSW,258,0.0,3.0,85,0.00,,,0.87,,2013-06-29 15:22:00,
2013-06-29 11:33:00,74.0,69.0,29.58,WSW,258,0.0,2.0,85,0.00,,,0.87,,2013-06-29 15:33:00,
2013-06-29 11:42:00,75.0,69.0,29.59,WSW,258,0.0,1.0,83,0.00,,,0.87,,2013-06-29 15:42:00,
2013-06-29 11:53:00,75.0,69.0,29.59,WSW,258,0.0,1.0,83,0.00,,,0.87,,2013-06-29 15:53:00,
2013-06-29 12:02:00,76.0,70.0,29.59,WSW,250,0.0,2.0,81,0.00,,,0.87,,2013-06-29 16:02:00,
2013-06-29 12:12:00,76.0,70.0,29.59,WSW,250,0.0,1.0,82,0.00,,,0.87,,2013-06-29 16:12:00,
2013-06-29 12:23:00,76.0,70.0,29.59,WSW,250,0.0,1.0,82,0.00,,,0.87,,2013-06-29 16:23:00,
2013-06-29 12:33:00,77.0,71.0,29.59,ESE,105,0.0,2.0,81,0.00,,,0.87,,2013-06-29 16:33:00,
2013-06-29 12:43:00,77.0,70.0,29.59,SW,234,0.0,3.0,79,0.00,,,0.87,,2013-06-29 16:43:00,
2013-06-29 12:53:00,77.0,70.0,29.59,SW,234,0.0,3.0,79,0.00,,,0.87,,2013-06-29 16:53:00,
2013-06-29 13:02:00,77.0,69.0,29.58,SW,234,0.0,2.0,77,0.00,,,0.87,,2013-06-29 17:02:00,
2013-06-29 13:12:00,77.0,70.0,29.58,SW,236,0.0,1.0,78,0.00,,,0.87,,2013-06-29 17:12:00,
2013-06-29 13:23:00,77.0,70.0,29.58,SW,236,0.0,1.0,78,0.00,,,0.87,,2013-06-29 17:23:00,
2013-06-29 13:34:00,77.0,70.0,29.58,SW,236,0.0,0.0,78,0.00,,,0.87,,2013-06-29 17:34:00,
2013-06-29 13:42:00,78.0,71.0,29.58,SW,236,0.0,1.0,78,0.00,,,0.87,,2013-06-29 17:42:00,
2013-06-29 13:52:00,78.0,71.0,29.58,SW,236,0.0,1.0,78,0.00,,,0.87,,2013-06-29 17:52:00,
2013-06-29 14:02:00,78.0,70.0,29.58,SW,236,0.0,1.0,77,0.00,,,0.87,,2013-06-29 18:02:00,
2013-06-29 14:12:00,78.0,70.0,29.58,SW,236,0.0,1.0,76,0.00,,,0.87,,2013-06-29 18:12:00,
2013-06-29 14:22:00,78.0,70.0,29.58,SW,236,0.0,1.0,76,0.00,,,0.87,,2013-06-29 18:22:00,
2013-06-29 14:34:00,78.0,71.0,29.58,SW,226,0.0,1.0,78,0.00,,,0.87,,2013-06-29 18:34:00,
2013-06-29 14:43:00,79.0,70.0,29.58,West,265,0.0,3.0,73,0.00,,,0.87,,2013-06-29 18:43:00,
2013-06-29 14:53:00,79.0,70.0,29.58,West,265,0.0,3.0,73,0.00,,,0.87,,2013-06-29 18:53:00,
2013-06-29 15:01:00,79.0,70.0,29.58,West,263,0.0,2.0,73,0.00,,,0.87,,2013-06-29 19:01:00,
2013-06-29 15:12:00,79.0,72.0,29.58,West,263,0.0,1.0,78,0.00,,,0.87,,2013-06-29 19:12:00,
2013-06-29 15:22:00,79.0,72.0,29.58,West,263,0.0,1.0,78,0.00,,,0.87,,2013-06-29 19:22:00,
2013-06-29 15:34:00,79.0,70.0,29.57,West,263,0.0,1.0,74,0.00,,,0.87,,2013-06-29 19:34:00,
2013-06-29 15:43:00,79.0,70.0,29.57,West,263,0.0,3.0,74,0.00,,,0.87,,2013-06-29 19:43:00,
2013-06-29 15:54:00,79.0,70.0,29.57,West,263,0.0,3.0,74,0.00,,,0.87,,2013-06-29 19:54:00,
2013-06-29 16:02:00,79.0,70.0,29.57,West,263,0.0,2.0,75,0.00,,,0.87,,2013-06-29 20:02:00,
2013-06-29 16:12:00,79.0,71.0,29.57,West,263,0.0,1.0,76,0.00,,,0.87,,2013-06-29 20:12:00,
2013-06-29 16:23:00,79.0,71.0,29.57,West,263,0.0,1.0,76,0.00,,,0.87,,2013-06-29 20:23:00,
2013-06-29 16:33:00,79.0,70.0,29.57,West,263,0.0,1.0,75,0.00,,,0.87,,2013-06-29 20:33:00,
2013-06-29 16:43:00,79.0,71.0,29.57,West,263,0.0,1.0,77,0.00,,,0.87,,2013-06-29 20:43:00,
2013-06-29 16:52:00,79.0,71.0,29.57,West,263,0.0,1.0,77,0.00,,,0.87,,2013-06-29 20:52:00,
2013-06-29 17:02:00,79.0,72.0,29.57,West,263,0.0,1.0,78,0.00,,,0.87,,2013-06-29 21:02:00,
2013-06-29 17:11:00,80.0,72.0,29.57,West,263,0.0,2.0,76,0.00,,,0.87,,2013-06-29 21:11:00,
2013-06-29 17:22:00,80.0,72.0,29.57,West,263,0.0,2.0,76,0.00,,,0.87,,2013-06-29 21:22:00,
2013-06-29 17:32:00,81.0,71.0,29.57,WNW,288,0.0,3.0,72,0.00,,,0.87,,2013-06-29 21:32:00,
2013-06-29 17:42:00,81.0,68.0,29.57,WNW,286,0.0,3.0,65,0.00,,,0.87,,2013-06-29 21:42:00,
2013-06-29 17:52:00,81.0,68.0,29.57,WNW,286,0.0,3.0,65,0.00,,,0.87,,2013-06-29 21:52:00,
2013-06-29 18:01:00,81.0,69.0,29.57,West,275,0.0,4.0,68,0.00,,,0.87,,2013-06-29 22:01:00,
2013-06-29 18:11:00,81.0,69.0,29.57,West,275,0.0,4.0,68,0.00,,,0.87,,2013-06-29 22:11:00,
2013-06-29 18:22:00,81.0,70.0,29.57,NW,309,0.0,4.0,70,0.00,,,0.87,,2013-06-29 22:22:00,
2013-06-29 18:33:00,80.0,69.0,29.57,West,274,0.0,1.0,70,0.00,,,0.74,,2013-06-29 22:33:00,
2013-06-29 18:43:00,80.0,69.0,29.57,West,274,0.0,1.0,70,0.00,,,0.74,,2013-06-29 22:43:00,
2013-06-29 18:53:00,80.0,70.0,29.57,West,273,0.0,2.0,72,0.00,,,0.74,,2013-06-29 22:53:00,
2013-06-29 19:02:00,79.0,70.0,29.57,West,273,0.0,0.0,75,0.00,,,0.74,,2013-06-29 23:02:00,
2013-06-29 19:12:00,79.0,70.0,29.57,West,273,0.0,0.0,75,0.00,,,0.74,,2013-06-29 23:12:00,
2013-06-29 19:23:00,79.0,71.0,29.58,West,273,0.0,0.0,76,0.00,,,0.74,,2013-06-29 23:23:00,
2013-06-29 19:34:00,79.0,71.0,29.58,West,273,0.0,0.0,77,0.00,,,0.53,,2013-06-29 23:34:00,
2013-06-29 19:43:00,79.0,71.0,29.58,West,273,0.0,0.0,77,0.00,,,0.53,,2013-06-29 23:43:00,
2013-06-29 19:53:00,78.0,71.0,29.58,West,273,0.0,0.0,79,0.00,,,0.53,,2013-06-29 23:53:00,
2013-06-29 20:02:00,78.0,71.0,29.58,West,273,0.0,0.0,79,0.00,,,0.53,,2013-06-30 00:02:00,
2013-06-29 20:12:00,78.0,71.0,29.58,West,273,0.0,0.0,79,0.00,,,0.53,,2013-06-30 00:12:00,
2013-06-29 20:22:00,78.0,71.0,29.59,West,273,0.0,0.0,80,0.00,,,0.53,,2013-06-30 00:22:00,
2013-06-29 20:33:00,78.0,72.0,29.58,West,273,0.0,0.0,81,0.00,,,0.53,,2013-06-30 00:33:00,
2013-06-29 20:43:00,78.0,72.0,29.58,West,273,0.0,0.0,81,0.00,,,0.53,,2013-06-30 00:43:00,
2013-06-29 20:52:00,77.0,71.0,29.59,West,273,0.0,0.0,82,0.00,,,0.53,,2013-06-30 00:52:00,
2013-06-29 21:01:00,76.0,71.0,29.59,West,273,0.0,0.0,84,0.00,,,0.53,,2013-06-30 01:01:00,
2013-06-29 21:12:00,76.0,71.0,29.59,West,273,0.0,0.0,84,0.00,,,0.53,,2013-06-30 01:12:00,
2013-06-29 21:22:00,76.0,71.0,29.59,West,273,0.0,0.0,85,0.00,,,0.53,,2013-06-30 01:22:00,
2013-06-29 21:33:00,76.0,71.0,29.60,West,273,0.0,0.0,85,0.00,,,0.53,,2013-06-30 01:33:00,
2013-06-29 21:44:00,76.0,71.0,29.60,West,273,0.0,0.0,85,0.00,,,0.53,,2013-06-30 01:44:00,
2013-06-29 21:53:00,75.0,71.0,29.61,West,273,0.0,0.0,86,0.00,,,0.53,,2013-06-30 01:53:00,
2013-06-29 22:02:00,75.0,71.0,29.61,West,273,0.0,0.0,87,0.00,,,0.53,,2013-06-30 02:02:00,
2013-06-29 22:11:00,75.0,71.0,29.61,West,273,0.0,0.0,87,0.00,,,0.53,,2013-06-30 02:11:00,
2013-06-29 22:24:00,74.0,70.0,29.61,West,273,0.0,0.0,88,0.00,,,0.53,,2013-06-30 02:24:00,
2013-06-29 22:34:00,74.0,70.0,29.62,West,273,0.0,0.0,88,0.00,,,0.53,,2013-06-30 02:34:00,
2013-06-29 22:43:00,74.0,70.0,29.62,West,273,0.0,0.0,88,0.00,,,0.53,,2013-06-30 02:43:00,
2013-06-29 22:53:00,74.0,71.0,29.62,West,273,0.0,0.0,89,0.00,,,0.53,,2013-06-30 02:53:00,
2013-06-29 23:02:00,73.0,70.0,29.62,West,273,0.0,0.0,89,0.00,,,0.53,,2013-06-30 03:02:00,
2013-06-29 23:12:00,73.0,70.0,29.62,West,273,0.0,0.0,89,0.00,,,0.53,,2013-06-30 03:12:00,
2013-06-29 23:23:00,74.0,71.0,29.64,West,273,0.0,0.0,89,0.00,,,0.50,,2013-06-30 03:23:00,
2013-06-29 23:33:00,73.0,70.0,29.63,West,273,0.0,0.0,89,0.00,,,0.50,,2013-06-30 03:33:00,
2013-06-29 23:43:00,73.0,70.0,29.63,West,273,0.0,0.0,89,0.00,,,0.50,,2013-06-30 03:43:00,
2013-06-29 23:53:00,73.0,70.0,29.64,West,273,0.0,0.0,89,0.00,,,0.50,,2013-06-30 03:53:00,